This demonstration page uses our WeatherBlox Daily Observations layout. Learn more.

Left ArrowRight Arrow

Hourly Observations for November 13, 2015

Temp ( °F °C ) Dew Point ( °F °C ) Humidity (%) Winds ( mph kmh ) Pressure ( in mb ) Visibility ( mi km ) Precip ( " mm )
12:53 am 00:53 Clear 48 8.9 32 0 54 54 W 14 22 29.98 1015 10 16 0.00 0.00
1:53 am 01:53 Clear 46 7.8 32 0 58 58 W 10 17 29.99 1016 10 16 0.00 0.00
2:53 am 02:53 Clear 45 7.2 31 -0.6 58 58 W 12 19 30.00 1016 10 16 0.00 0.00
3:53 am 03:53 Clear 45 7.2 30 -1.1 56 56 W 12 19 30.01 1016 10 16 0.00 0.00
4:53 am 04:53 Clear 45 7.2 28 -2.2 52 52 W 15 24 30.02 1017 10 16 0.00 0.00
5:53 am 05:53 Clear 43 6.1 29 -1.7 58 58 W 10 17 30.05 1018 10 16 0.00 0.00
6:53 am 06:53 Clear 41 5 29 -1.7 62 62 W 6 9 30.07 1018 10 16 0.00 0.00
7:53 am 07:53 Sunny 42 5.6 28 -2.2 58 58 W 8 13 30.08 1019 10 16 0.00 0.00
8:53 am 08:53 Sunny 44 6.7 29 -1.7 55 55 W 12 19 30.11 1020 10 16 0.00 0.00
9:53 am 09:53 Sunny 46 7.8 27 -2.8 47 47 W 14 22 30.11 1020 10 16 0.00 0.00
10:53 am 10:53 Sunny 48 8.9 27 -2.8 44 44 W 15 24 30.11 1020 10 16 0.00 0.00
11:53 am 11:53 Sunny 51 10.6 21 -6.1 31 31 W 18 30 30.11 1020 10 16 0.00 0.00
12:53 pm 12:53 Sunny 52 11.1 19 -7.2 27 27 W 22 35 30.09 1019 10 16 0.00 0.00
1:53 pm 13:53 Sunny with Light Rain 53 11.7 19 -7.2 26 26 WNW 18 30 30.09 1019 10 16 0.00 0.03
2:53 pm 14:53 Sunny with Light Rain 53 11.7 15 -9.4 22 22 WNW 20 31 30.10 1019 10 16 0.00 0.03
3:53 pm 15:53 Sunny 52 11.1 16 -8.9 24 24 W 14 22 30.11 1020 10 16 0.00 0.03
6:53 pm 18:53 Clear 46 7.8 18 -7.8 32 32 W 8 13 30.19 1022 10 16 0.00 0.00
7:53 pm 19:53 Clear 43 6.1 19 -7.2 38 38 W 6 9 30.21 1023 10 16 0.00 0.00
8:53 pm 20:53 Clear 41 5 20 -6.7 43 43 W 5 7 30.22 1023 10 16 0.00 0.00
9:53 pm 21:53 Clear 38 3.3 21 -6.1 51 51 W 5 7 30.24 1024 10 16 0.00 0.00
10:53 pm 22:53 Clear 31 -0.6 23 -5 72 72 Calm 30.24 1024 10 16 0.00 0.00
11:53 pm 23:53 Clear 33 0.6 24 -4.4 70 70 WNW 3 6 30.26 1025 10 16 0.00 0.00

Powered by AerisWeather